Weather observations for the past three days for
Indianapolis Metro Airport
Imperial (Metric)
Date Time (edt) Wind (mph) Vis. (mi.) Weather Sky Cond. Temperature (ºF) Relative Humidity Wind Chill (°F) Heat Index (°F) Pressure Precipitation (in)
Air Dwpt 6 hour altimeter (in) sea level (mb) 1 hr 3 hr 6 hr
Max. Min.
16 15:15 W 16 G 21 10.00 Partly Cloudy FEW060 SCT280 SCT330 SCT360 83.3 68.9 62% 87 29.9 0.0
16 14:55 SW 16 G 23 10.00 A Few Clouds FEW320 83.8 68.5 60% 87 29.88 0.0
16 14:35 W 16 G 22 10.00 A Few Clouds FEW350 84.7 68 57% 88 29.88 0.0
16 14:15 SW 15 G 22 10.00 A Few Clouds FEW350 84.7 69.8 61% 89 29.87 0.0
16 13:55 W 7 10.00 Partly Cloudy FEW280 SCT380 83.5 70.2 64% 88 29.88 0.0
16 13:35 W 13 G 23 10.00 A Few Clouds FEW300 83.1 69.4 63% 87 29.88 0.0
16 13:15 W 10 10.00 Partly Cloudy FEW075 SCT350 83.5 70.9 66% 88 29.88 0.0
16 12:55 W 14 G 21 10.00 Partly Cloudy FEW075 SCT370 83.3 69.8 64% 87 29.87 0.0
16 12:35 W 8 G 22 10.00 Fair CLR 82.9 69.1 63% 87 29.87 0.0
16 12:15 W 8 G 20 10.00 A Few Clouds FEW330 81.9 69.3 66% 85 29.87 0.0
16 11:55 W 13 G 20 10.00 Mostly Cloudy SCT060 BKN310 BKN380 80.4 67.8 66% 83 29.88 0.0
16 11:35 W 9 G 18 10.00 Mostly Cloudy BKN055 79.5 68 68% 82 29.88 0.0
16 11:15 SW 9 10.00 Mostly Cloudy BKN055 78.3 68.4 72% 80 29.87 0.0
16 10:55 W 9 10.00 Fair CLR 77.5 68.9 75% 79 29.87 0.0
16 10:35 SW 8 10.00 A Few Clouds FEW360 75.9 68.7 78% 77 29.88 0.0
16 10:15 SW 12 G 21 10.00 A Few Clouds FEW330 74.8 69.1 82% 29.89 0.0
16 09:55 SW 7 10.00 A Few Clouds FEW380 73.8 69.4 86% 29.88 0.0
16 09:35 SW 6 10.00 A Few Clouds FEW320 71.6 68.4 90% 29.87 0.0 0.01
16 09:15 SW 8 10.00 A Few Clouds FEW290 70.5 68 92% 29.87 0.0 0.01
16 08:55 SW 8 10.00 A Few Clouds FEW260 69.8 67.8 93% 29.87 0.0
16 08:35 SW 7 10.00 Fair CLR 69.6 67.8 94% 29.87 0.0
16 08:15 SW 7 10.00 Fair CLR 69.6 67.6 93% 29.86 0.0
16 07:55 W 8 10.00 Fair CLR 69.4 67.8 95% 29.86 0.0
16 07:35 SW 7 9.00 Fair CLR 69.4 68 95% 29.85 0.0
16 07:15 SW 7 7.00 Light Rain FEW075 69.4 68.2 96% 29.87 0.0
16 06:55 W 8 6.00 Light Rain Fog/Mist FEW014 SCT019 OVC075 69.4 68.7 98% 29.88 0.0
16 06:35 NW 5 6.00 Light Rain Fog/Mist FEW010 OVC080 69.4 68.5 97% 29.87 0.0 0.02
16 06:15 Vrbl 3 6.00 Light Rain Fog/Mist FEW010 BKN090 69.3 68.4 97% 29.85 0.0 0.01
16 05:55 NW 10 6.00 Light Rain Fog/Mist BKN095 69.4 68.2 96% 29.85 0.0 0.01
16 05:35 SW 7 G 18 5.00 Light Rain Fog/Mist OVC095 69.6 68.4 96% 29.85 0.0 0.11
16 05:15 S 13 4.00 Rain Fog/Mist OVC090 70 68.4 95% 29.84 0.0 0.08
16 04:55 SW 8 4.00 Rain Fog/Mist Thunderstorm in Vicinity OVC095 70 68.5 95% 29.86 0.0 0.02
16 04:35 SW 8 5.00 Rain Fog/Mist Thunderstorm in Vicinity OVC095 70.3 68 92% 29.84 0.0 0.02
16 04:15 SW 12 7.00 Light Rain SCT090 BKN120 72.3 66.7 83% 29.84 0.0
16 03:55 W 10 9.00 Light Rain SCT090 SCT110 72.5 67.1 83% 29.84 0.0
16 03:35 W 7 8.00 Light Rain BKN090 OVC110 70.5 67.8 91% 29.86 0.0 0.07
16 03:15 S 8 4.00 Rain Fog/Mist FEW002 OVC090 69.3 68.2 96% 29.86 0.0 0.05
16 02:55 N 3 4.00 Light Rain Fog/Mist FEW002 OVC090 69.4 68 95% 29.9 0.0 0.01
16 02:35 Calm 3.00 Rain Fog/Mist OVC090 69.3 67.8 95% 29.92 0.0 0.07
16 02:15 SW 6 4.00 Light Rain Fog/Mist FEW002 OVC090 69.3 68 96% 29.93 0.0 0.03
16 01:55 SW 5 8.00 Light Rain FEW046 SCT070 OVC100 69.3 67.8 95% 29.95 0.0
16 01:35 W 5 6.00 Light Rain Fog/Mist FEW002 BKN055 BKN090 OVC100 69.3 67.5 94% 29.94 0.0 0.25
16 01:15 W 8 G 21 1.50 Thunderstorm Heavy Rain Fog/Mist FEW002 BKN040 BKN070 OVC100 69.3 67.8 95% 29.95 0.0 0.2
16 00:55 NW 18 G 24 10.00 Mostly Cloudy FEW070 SCT100 BKN120 BKN200 83.3 74.8 76% 91 29.95 0.0
16 00:35 SW 13 G 22 10.00 Partly Cloudy SCT200 83.1 74.8 76% 90 29.85 0.0
16 00:15 SW 13 G 23 10.00 Fair CLR 83.3 75 76% 91 29.84 0.0
15 23:55 SW 10 G 22 10.00 Fair CLR 83.1 75.7 79% 91 29.84 0.0
15 23:35 SW 12 G 24 10.00 Fair CLR 83.5 76.3 79% 92 29.84 0.0
15 23:15 SW 14 G 21 10.00 Fair CLR 83.1 77 82% 92 29.85 0.0
15 22:55 SW 10 10.00 Fair CLR 82.6 77.2 84% 91 29.85 0.0
15 22:35 SW 9 10.00 Fair CLR 82.6 76.8 83% 91 29.84 0.0
15 22:15 SW 9 10.00 Fair CLR 82.8 76.5 81% 91 29.84 0.0
15 21:55 SW 7 10.00 Fair CLR 82.8 75.6 79% 90 29.85 0.0
15 21:35 SW 7 10.00 Fair CLR 83.1 74.5 75% 90 29.83 0.0
15 21:15 SW 7 G 16 10.00 Fair CLR 83.7 73.4 71% 90 29.82 0.0
15 20:55 S 10 10.00 Fair CLR 84.4 72.3 67% 90 29.82 0.0
15 20:35 SW 14 10.00 A Few Clouds FEW035 84.9 73 68% 92 29.83 0.0
15 20:15 S 10 10.00 Mostly Cloudy SCT033 SCT040 BKN048 BKN055 86.2 76.6 73% 97 29.84 0.0
15 19:55 S 12 10.00 Mostly Cloudy SCT032 BKN041 87.8 78.1 73% 101 29.84 0.0
15 19:35 SW 8 10.00 Partly Cloudy FEW033 SCT220 88.5 77.9 71% 102 29.84 0.0
15 19:15 SW 8 10.00 A Few Clouds FEW036 89.2 78.3 70% 104 29.84 0.0
15 18:55 SW 10 10.00 Partly Cloudy FEW036 SCT065 88.7 78.3 71% 103 29.84 0.0
15 18:35 SW 5 10.00 A Few Clouds FEW035 89.2 78.8 71% 105 29.84 0.0
15 18:15 SW 7 10.00 A Few Clouds FEW039 88.9 78.1 71% 103 29.85 0.0
15 17:55 SW 8 10.00 Partly Cloudy SCT037 88.5 77.7 70% 102 29.86 0.0
15 17:35 SW 8 10.00 Mostly Cloudy BKN034 BKN042 89.4 79.2 72% 105 29.86 0.0
15 17:15 SW 7 10.00 Mostly Cloudy SCT036 BKN049 BKN110 89.1 78.1 70% 103 29.87 0.0
15 16:55 W 8 10.00 Partly Cloudy SCT036 SCT065 88.7 77.2 69% 101 29.87 0.0
15 16:35 SW 12 G 17 10.00 Partly Cloudy FEW034 SCT060 90.1 78.1 68% 105 29.88 0.0
15 16:15 SW 8 10.00 Thunderstorm in Vicinity FEW060 89.1 78.1 70% 103 29.87 0.0
15 15:55 W 6 10.00 Partly Cloudy SCT035 SCT047 89.6 78.3 69% 104 29.88 0.0
15 15:35 W 8 10.00 Mostly Cloudy SCT036 BKN046 87.8 76.8 70% 100 29.89 0.0
15 15:15 SW 10 10.00 Partly Cloudy SCT036 SCT060 88.9 77.5 69% 102 29.9 0.0
15 14:55 SW 7 10.00 Mostly Cloudy BKN036 BKN060 88.2 76.8 69% 100 29.91 0.0
15 14:35 SW 10 10.00 Partly Cloudy SCT035 88.3 77.2 70% 101 29.92 0.0
15 14:15 SW 9 10.00 Mostly Cloudy SCT035 BKN065 87.4 77.4 72% 100 29.93 0.0
15 13:55 SW 8 10.00 Mostly Cloudy BKN034 BKN060 86.9 75.9 70% 97 29.93 0.0
15 13:35 W 6 10.00 Mostly Cloudy BKN033 BKN060 86.9 76.1 70% 97 29.93 0.0
15 13:15 Vrbl 6 10.00 Mostly Cloudy BKN033 87.3 76.5 70% 98 29.93 0.0
15 12:55 SW 9 10.00 Partly Cloudy SCT032 86.2 75.9 72% 96 29.94 0.0
15 12:35 Vrbl 3 10.00 Mostly Cloudy FEW037 BKN070 85.8 75.7 72% 95 29.94 0.0
15 12:15 SW 6 10.00 Mostly Cloudy BKN070 84.4 74.3 72% 92 29.94 0.0
15 11:55 SW 10 10.00 Partly Cloudy SCT075 84.2 73.4 70% 91 29.94 0.0
15 11:35 SW 10 10.00 Fair CLR 83.8 72.5 69% 90 29.95 0.0
15 11:15 SW 6 10.00 Fair CLR 82.9 71.1 67% 88 29.94 0.0
15 10:55 SW 9 10.00 Fair CLR 81.7 69.4 67% 85 29.94 0.0
15 10:35 SW 7 10.00 Fair CLR 81 68.4 66% 84 29.95 0.0
15 10:15 SW 9 10.00 Fair CLR 79.2 67.6 68% 81 29.95 0.0
15 09:55 Vrbl 5 10.00 Fair CLR 78.3 67.6 70% 80 29.95 0.0
15 09:35 SW 7 10.00 Fair CLR 77 66.2 69% 79 29.95 0.0
15 09:15 SW 6 10.00 Fair CLR 75.7 66.6 73% 77 29.95 0.0
15 08:55 Vrbl 5 10.00 Fair CLR 74.5 67.1 78% 29.96 0.0
15 08:35 SW 7 10.00 Fair CLR 73.2 67.1 81% 29.96 0.0
15 08:15 SW 3 10.00 Fair CLR 72.1 67.1 84% 29.95 0.0
15 07:55 Calm 10.00 A Few Clouds FEW210 71.1 67.8 90% 29.94 0.0
15 07:35 Calm 9.00 Partly Cloudy SCT200 70 65.8 87% 29.93 0.0
15 07:15 SW 3 8.00 A Few Clouds FEW075 69.6 65.5 87% 29.94 0.0
15 06:55 S 8 5.00 Light Rain SCT070 BKN110 70 65.5 86% 29.94 0.0
15 06:35 SW 9 8.00 Overcast SCT090 OVC120 70.3 65.5 85% 29.96 0.0
15 06:15 S 8 7.00 Light Rain FEW050 BKN090 OVC110 70.7 66.4 86% 29.96 0.0
15 05:55 W 8 G 17 7.00 Light Rain FEW070 BKN090 BKN120 72.1 66.4 82% 29.99 0.0
15 05:35 W 10 10.00 Partly Cloudy FEW041 SCT065 SCT090 74.1 65.3 74% 30 0.0
15 05:15 NW 12 G 23 9.00 Light Rain FEW024 SCT042 BKN048 BKN065 OVC120 75.6 65.8 72% 77 30.01 0.0
15 04:55 W 8 10.00 Mostly Cloudy BKN120 79.2 72.9 81% 83 29.97 0.0
15 04:35 SW 9 10.00 Overcast OVC120 79 72.9 82% 82 29.96 0.0
15 04:15 Vrbl 6 10.00 Overcast OVC130 78.8 72.9 82% 82 29.96 0.0
15 03:55 SW 8 10.00 Mostly Cloudy BKN140 78.8 72.9 82% 82 29.95 0.0
15 03:35 SW 7 10.00 Partly Cloudy FEW140 SCT180 78.6 72.9 83% 82 29.94 0.0
15 03:15 SW 8 10.00 Mostly Cloudy BKN140 BKN180 79.2 73 82% 83 29.95 0.0
15 02:55 SW 6 10.00 Overcast OVC140 79.3 73.2 82% 83 29.96 0.0
15 02:35 SW 9 10.00 Mostly Cloudy BKN140 BKN170 79.2 73.4 83% 83 29.95 0.0
15 02:15 SW 8 10.00 Mostly Cloudy BKN130 79.2 73.6 83% 83 29.96 0.0
15 01:55 SW 8 10.00 A Few Clouds FEW130 79 73.9 85% 83 29.96 0.0
15 01:35 SW 8 10.00 Fair CLR 79.3 74.3 85% 83 29.97 0.0
15 01:15 SW 8 10.00 Fair CLR 79.5 74.5 85% 84 29.97 0.0
15 00:55 SW 8 10.00 A Few Clouds FEW130 80.1 74.7 84% 85 29.98 0.0
15 00:35 S 10 10.00 Partly Cloudy SCT130 80.4 75 84% 86 29.98 0.0
15 00:15 SW 7 10.00 Fair CLR 80.2 75 84% 85 29.98 0.0
14 23:55 SW 8 10.00 Fair CLR 80.4 74.8 83% 86 29.97 0.0
14 23:35 S 9 10.00 Fair CLR 80.6 74.8 83% 86 29.96 0.0
14 23:15 SW 7 10.00 Fair CLR 80.6 75 83% 86 29.96 0.0
14 22:55 SW 9 10.00 Fair CLR 81 75.2 83% 87 29.96 0.0
14 22:35 S 6 10.00 Fair CLR 79.9 75.7 87% 85 29.96 0.0
14 22:15 S 7 10.00 Fair CLR 80.2 75.9 87% 86 29.97 0.0
14 21:55 S 7 10.00 A Few Clouds FEW180 80.2 75.9 87% 86 29.97 0.0
14 21:35 S 8 10.00 Mostly Cloudy BKN170 80.6 75.7 85% 86 29.97 0.0
14 21:15 S 6 10.00 Overcast OVC160 80.4 75.6 85% 86 29.98 0.0
14 20:55 S 7 10.00 Overcast OVC160 81 75.6 84% 87 29.99 0.0
14 20:35 S 7 10.00 Overcast OVC150 81.5 75.7 83% 88 29.99 0.0
14 20:15 S 8 10.00 Overcast OVC140 81.5 75.9 83% 88 30 0.0
14 19:55 S 8 10.00 Overcast OVC150 82.2 76.5 83% 90 30 0.0
14 19:35 S 6 10.00 Overcast OVC160 83.1 76.6 81% 92 30 0.0
14 19:15 S 3 10.00 Mostly Cloudy BKN160 BKN180 82.9 76.5 81% 91 30 0.0
14 18:55 S 3 10.00 Mostly Cloudy BKN150 82.9 76.3 80% 91 30.01 0.0
14 18:35 S 7 10.00 A Few Clouds FEW190 83.1 75.4 78% 91 30.01 0.0
14 18:15 SW 8 10.00 Partly Cloudy FEW140 SCT190 83.5 75.7 78% 92 30.01 0.0
14 17:55 S 6 10.00 A Few Clouds FEW140 83.7 75.9 78% 92 30.01 0.0
14 17:35 S 6 10.00 Partly Cloudy FEW180 SCT370 83.1 75.7 79% 91 30.02 0.0
14 17:15 S 8 10.00 Mostly Cloudy SCT170 SCT340 BKN370 81.9 75.6 81% 89 30.02 0.0
14 16:55 S 7 10.00 Mostly Cloudy BKN170 78.4 73.9 86% 81 30.03 0.0
14 16:35 S 6 10.00 Partly Cloudy SCT170 SCT350 SCT380 75.7 73.2 92% 75 30.03 0.0
14 16:15 S 5 10.00 A Few Clouds FEW380 74.1 72.7 95% 30.05 0.0
14 15:55 Calm 10.00 A Few Clouds FEW160 73.2 71.2 94% 30.04 0.0
14 15:35 S 6 10.00 A Few Clouds FEW140 72.1 70.5 95% 30.05 0.0
14 15:15 S 5 10.00 Mostly Cloudy BKN140 BKN170 71.4 69.6 94% 30.03 0.0
14 14:55 S 9 10.00 Mostly Cloudy FEW095 BKN170 71.2 70.2 96% 30.05 0.0
14 14:35 S 10 2.50 Thunderstorm Light Rain Fog/Mist FEW002 OVC075 70.7 70.2 98% 30.05 0.0 1.13
14 14:15 SE 8 0.50 Thunderstorm Heavy Rain Fog OVC028 69.3 68.5 98% 30.06 0.0 1.06
14 13:55 NW 26 G 36 0.50 Thunderstorm Heavy Rain Fog and Windy FEW019 BKN026 BKN035 OVC065 70.2 69.1 96% 30.12 0.0 0.22
14 13:35 NW 14 G 28 10.00 Thunderstorm in Vicinity SCT035 BKN042 BKN065 87.1 75.2 68% 97 30.1 0.0
14 13:15 SW 13 10.00 Partly Cloudy SCT037 SCT280 87.1 75.6 69% 97 30.06 0.0
14 12:55 SW 12 10.00 Partly Cloudy SCT034 86.2 74.8 69% 95 30.05 0.0
14 12:35 W 9 G 16 10.00 A Few Clouds FEW055 86.4 74.1 67% 95 30.06 0.0
14 12:15 SW 12 10.00 Partly Cloudy FEW055 SCT330 85.8 75 70% 95 30.07 0.0
14 11:55 W 7 10.00 Partly Cloudy SCT042 SCT050 85.5 74.5 70% 94 30.08 0.0
14 11:35 SW 10 10.00 Mostly Cloudy SCT042 BKN050 84.6 74.7 72% 93 30.08 0.0
14 11:15 SW 9 10.00 Partly Cloudy SCT041 84 74.1 72% 91 30.08 0.0
14 10:55 SW 9 10.00 A Few Clouds FEW039 83.8 74.7 74% 91 30.08 0.0
14 10:35 SW 8 10.00 Fair CLR 82.8 74.8 77% 90 30.09 0.0
14 10:15 SW 9 10.00 Fair CLR 81.7 74.1 78% 88 30.09 0.0
14 09:55 SW 8 10.00 Partly Cloudy SCT042 80.1 73.9 82% 85 30.1 0.0
14 09:35 SW 7 10.00 A Few Clouds FEW043 79.7 73.8 82% 84 30.1 0.0
14 09:15 SW 8 10.00 Fair CLR 78.8 73.8 85% 82 30.11 0.0
14 08:55 W 6 10.00 Fair CLR 77.9 73.2 86% 80 30.11 0.0
14 08:35 SW 7 10.00 Fair CLR 76.8 72.9 88% 78 30.11 0.0
14 08:15 SW 5 10.00 A Few Clouds FEW095 75.7 72.3 89% 76 30.11 0.0
14 07:55 S 5 10.00 Mostly Cloudy BKN100 75.2 72.1 90% 74 30.1 0.0
14 07:35 S 5 10.00 Overcast OVC100 74.8 72.1 91% 30.1 0.0
14 07:15 S 5 9.00 Overcast OVC095 74.5 72 92% 30.1 0.0
14 06:55 S 6 10.00 Overcast OVC100 73.9 71.8 93% 30.1 0.0
14 06:35 S 3 10.00 Mostly Cloudy BKN100 74.1 71.6 92% 30.1 0.0
14 06:15 S 3 10.00 Fair CLR 73.4 71.2 93% 30.1 0.0
14 05:55 S 3 10.00 Fair CLR 73.8 71.2 92% 30.1 0.0
14 05:35 SW 3 10.00 Fair CLR 73.8 71.2 92% 30.1 0.0
14 05:15 S 3 10.00 Fair CLR 73.4 71.1 92% 30.1 0.0
14 04:55 SW 3 10.00 Fair CLR 73.8 71.1 91% 30.1 0.0
14 04:35 SW 3 10.00 Fair CLR 73.6 70.9 91% 30.1 0.0
14 04:15 Calm 10.00 Fair CLR 74.1 71.1 90% 30.1 0.0
14 03:55 SW 5 10.00 Fair CLR 74.1 71.1 90% 30.1 0.0
14 03:35 SW 3 10.00 Fair CLR 74.3 71.1 90% 30.1 0.0
14 03:15 SW 3 10.00 Fair CLR 74.5 71.4 90% 30.1 0.0
14 02:55 SW 6 10.00 Fair CLR 74.8 71.4 89% 30.12 0.0
14 02:35 SW 3 10.00 Fair CLR 75.2 71.4 88% 75 30.12 0.0
14 02:15 SW 6 10.00 Fair CLR 75.6 71.2 87% 76 30.12 0.0
14 01:55 SW 7 10.00 Fair CLR 75.7 71.4 87% 76 30.12 0.0
14 01:35 S 6 10.00 Fair CLR 75.7 71.8 88% 76 30.13 0.0
14 01:15 S 3 10.00 Fair CLR 74.3 71.1 90% 30.14 0.0
14 00:55 Calm 10.00 Fair CLR 73.8 70.5 90% 30.15 0.0
14 00:35 S 3 10.00 Fair CLR 75.6 70.3 84% 76 30.15 0.0
14 00:15 SE 7 10.00 Fair CLR 74.7 70.3 86% 30.15 0.0
13 23:55 SE 5 10.00 Fair CLR 75.6 70.3 84% 76 30.14 0.0
13 23:35 S 5 10.00 Fair CLR 76.8 69.8 79% 78 30.14 0.0
13 23:15 SE 7 10.00 Fair CLR 76.8 69.4 78% 78 30.14 0.0
13 22:55 SE 6 10.00 Fair CLR 76.1 68.5 78% 77 30.14 0.0
13 22:35 S 7 10.00 Fair CLR 77 68.2 74% 79 30.14 0.0
13 22:15 SE 7 10.00 Fair CLR 77.2 68.2 74% 79 30.13 0.0
13 21:55 SE 8 10.00 A Few Clouds FEW041 77.9 67.8 71% 80 30.13 0.0
13 21:35 SE 7 10.00 A Few Clouds FEW041 78.1 69.8 76% 80 30.14 0.0
13 21:15 SE 6 10.00 Fair CLR 79.2 69.4 72% 82 30.15 0.0
13 20:55 SE 10 10.00 A Few Clouds FEW045 81.3 68.7 66% 84 30.15 0.0
13 20:35 E 6 10.00 A Few Clouds FEW046 83.1 69.8 64% 87 30.15 0.0
13 20:15 SE 8 10.00 Mostly Cloudy BKN046 84 69.8 62% 88 30.14 0.0
13 19:55 NW 3 10.00 Mostly Cloudy BKN046 87.3 70.7 58% 93 30.14 0.0
13 19:35 W 7 10.00 Mostly Cloudy BKN046 BKN060 88 70.5 56% 93 30.13 0.0
13 19:15 W 7 10.00 Mostly Cloudy BKN048 BKN075 BKN090 87.8 71.2 58% 94 30.14 0.0
13 18:55 W 5 10.00 Partly Cloudy FEW060 SCT075 SCT095 87.3 69.3 55% 92 30.14 0.0
13 18:35 W 6 10.00 Partly Cloudy SCT050 87.3 69.1 55% 92 30.14 0.0
13 18:15 Calm 10.00 Partly Cloudy SCT049 88.3 70.9 56% 94 30.14 0.0
13 17:55 W 3 10.00 A Few Clouds FEW060 86.7 71.1 60% 92 30.14 0.0
13 17:35 Vrbl 3 10.00 A Few Clouds FEW060 88.5 70.5 55% 94 30.15 0.0
13 17:15 SW 6 10.00 A Few Clouds FEW080 88.9 70.2 54% 94 30.15 0.0
13 16:55 W 7 10.00 A Few Clouds FEW070 88.2 69.1 53% 93 30.15 0.0
13 16:35 W 3 10.00 A Few Clouds FEW060 88.2 70 55% 93 30.15 0.0
13 16:15 Vrbl 5 10.00 A Few Clouds FEW060 87.4 69.6 56% 92 30.16 0.0
13 15:55 Calm 10.00 A Few Clouds FEW060 87.1 66.4 50% 90 30.16 0.0
13 15:35 SW 6 10.00 Fair CLR 87.6 68.4 53% 91 30.17 0.0
Date Time (edt) Wind (mph) Vis. (mi.) Weather Sky Cond. Air Dwpt Max. Min. Relative Humidity Wind Chill (°F) Heat Index (°F) altimeter (in) sea level (mb) 1 hr 3 hr 6 hr
6 hour
Temperature (ºF) Pressure Precipitation (in)